KLM375 EHAM-EDDF

Flight info

Callsign KLM375
Flight time 0h 48m
Altitude 33000
Route EDUPO Z739 MISGO DCT DIXAT DIXAT1A
Aircraft A20N/M-SDE2E3FGHIRWXY/LB1

Departure

Time 2026-04-18 10:51
Airport Amsterdam Airport Schiphol (EHAM)

Arrival

Time 2026-04-18 11:39
Airport Frankfurt Main Airport (EDDF)
Time Latitude Longitude Altitude Speed Heading
2026-04-18 10:09 52.30476 4.76290 0 ft 0 kts 238°
2026-04-18 10:41 52.30478 4.76294 0 ft 2 kts 239°
2026-04-18 10:41 52.30486 4.76315 0 ft 2 kts 238°
2026-04-18 10:41 52.30494 4.76335 0 ft 0 kts 238°
2026-04-18 10:42 52.30500 4.76349 0 ft 2 kts 211°
2026-04-18 10:42 52.30515 4.76354 0 ft 2 kts 169°
2026-04-18 10:42 52.30523 4.76350 0 ft 1 kts 143°
2026-04-18 10:42 52.30527 4.76344 0 ft 0 kts 148°
2026-04-18 10:46 52.30520 4.76352 0 ft 4 kts 148°
2026-04-18 10:46 52.30464 4.76407 0 ft 12 kts 149°
2026-04-18 10:47 52.30386 4.76485 0 ft 13 kts 147°
2026-04-18 10:47 52.30335 4.76610 0 ft 14 kts 79°
2026-04-18 10:47 52.30312 4.76764 0 ft 14 kts 107°
2026-04-18 10:47 52.30347 4.76914 0 ft 14 kts 57°
2026-04-18 10:48 52.30405 4.77057 0 ft 15 kts 57°
2026-04-18 10:48 52.30461 4.77213 0 ft 16 kts 59°
2026-04-18 10:48 52.30538 4.77412 0 ft 18 kts 56°
2026-04-18 10:48 52.30561 4.77534 0 ft 5 kts 120°
2026-04-18 10:49 52.30559 4.77538 0 ft 0 kts 130°
2026-04-18 10:50 52.30548 4.77555 0 ft 11 kts 140°
2026-04-18 10:50 52.30453 4.77637 0 ft 12 kts 168°
2026-04-18 10:50 52.30399 4.77598 0 ft 0 kts 234°
2026-04-18 10:50 52.30329 4.77416 0 ft 54 kts 238°
2026-04-18 10:51 52.30001 4.76552 0 ft 122 kts 237°
2026-04-18 10:51 52.29444 4.75113 128 ft 164 kts 240°
2026-04-18 10:51 52.28841 4.73561 753 ft 167 kts 239°
2026-04-18 10:51 52.28177 4.71871 1314 ft 182 kts 240°
2026-04-18 10:52 52.27462 4.70031 1845 ft 199 kts 234°
2026-04-18 10:52 52.26257 4.68687 2316 ft 225 kts 196°
2026-04-18 10:52 52.24678 4.68731 3181 ft 233 kts 166°
2026-04-18 10:52 52.23259 4.70068 4143 ft 239 kts 137°
2026-04-18 10:53 52.22313 4.72293 5000 ft 245 kts 123°
2026-04-18 10:53 52.21460 4.74742 5748 ft 252 kts 122°
2026-04-18 10:53 52.20603 4.77208 6291 ft 268 kts 123°
2026-04-18 10:53 52.19632 4.79957 6887 ft 284 kts 123°
2026-04-18 10:54 52.18650 4.82720 7683 ft 288 kts 123°
2026-04-18 10:54 52.17694 4.85578 8548 ft 293 kts 114°
2026-04-18 10:54 52.17416 4.88892 9342 ft 303 kts 83°
2026-04-18 10:54 52.17976 4.92221 10166 ft 306 kts 72°
2026-04-18 10:55 52.18652 4.95496 10771 ft 315 kts 72°
2026-04-18 10:55 52.19353 4.98958 11157 ft 332 kts 73°
2026-04-18 10:55 52.20083 5.02682 11535 ft 351 kts 73°
2026-04-18 10:55 52.20829 5.06579 11867 ft 368 kts 73°
2026-04-18 10:56 52.21605 5.10695 12350 ft 380 kts 74°
2026-04-18 10:56 52.22380 5.14835 13046 ft 384 kts 74°
2026-04-18 10:56 52.23159 5.19006 13733 ft 387 kts 74°
2026-04-18 10:56 52.23784 5.23294 14398 ft 390 kts 88°
2026-04-18 10:57 52.23450 5.27623 14997 ft 386 kts 113°
2026-04-18 10:57 52.22140 5.31382 15667 ft 382 kts 130°
2026-04-18 10:57 52.20536 5.34882 16301 ft 386 kts 130°
2026-04-18 10:57 52.18960 5.38357 16903 ft 390 kts 129°
2026-04-18 10:58 52.17363 5.41944 17493 ft 393 kts 129°
2026-04-18 10:58 52.15756 5.45595 18061 ft 397 kts 129°
2026-04-18 10:58 52.14166 5.49231 18608 ft 401 kts 129°
2026-04-18 10:58 52.12530 5.52975 19182 ft 404 kts 129°
2026-04-18 10:59 52.10902 5.56700 19707 ft 408 kts 129°
2026-04-18 10:59 52.09264 5.60438 20216 ft 411 kts 129°
2026-04-18 10:59 52.07600 5.64228 20730 ft 414 kts 129°
2026-04-18 10:59 52.05861 5.67985 21248 ft 416 kts 134°
2026-04-18 11:00 52.03994 5.71570 21719 ft 418 kts 136°
2026-04-18 11:00 52.02075 5.75155 22215 ft 422 kts 136°
2026-04-18 11:00 52.00148 5.78742 22681 ft 426 kts 136°
2026-04-18 11:00 51.98187 5.82392 23141 ft 430 kts 136°
2026-04-18 11:01 51.96226 5.86042 23620 ft 433 kts 136°
2026-04-18 11:01 51.94249 5.89734 24092 ft 436 kts 136°
2026-04-18 11:01 51.92265 5.93437 24539 ft 439 kts 136°
2026-04-18 11:02 51.88251 6.00908 25399 ft 445 kts 136°
2026-04-18 11:02 51.86205 6.04709 25806 ft 448 kts 136°
2026-04-18 11:02 51.84133 6.08539 26187 ft 452 kts 136°
2026-04-18 11:02 51.82039 6.12387 26577 ft 455 kts 137°
2026-04-18 11:03 51.79935 6.16244 26953 ft 457 kts 137°
2026-04-18 11:03 51.77831 6.20096 27432 ft 457 kts 137°
2026-04-18 11:03 51.75747 6.23913 27988 ft 455 kts 137°
2026-04-18 11:03 51.73654 6.27736 28510 ft 453 kts 137°
2026-04-18 11:04 51.71583 6.31511 28995 ft 452 kts 137°
2026-04-18 11:04 51.69525 6.35255 29448 ft 451 kts 137°
2026-04-18 11:04 51.67445 6.39031 29880 ft 450 kts 137°
2026-04-18 11:04 51.65362 6.42809 30299 ft 450 kts 137°
2026-04-18 11:05 51.63303 6.46540 30698 ft 449 kts 137°
2026-04-18 11:05 51.61244 6.50263 31087 ft 448 kts 137°
2026-04-18 11:05 51.59182 6.53984 31455 ft 447 kts 137°
2026-04-18 11:05 51.57106 6.57729 31786 ft 447 kts 137°
2026-04-18 11:06 51.55056 6.61420 32051 ft 448 kts 137°
2026-04-18 11:06 51.52977 6.65159 32331 ft 449 kts 138°
2026-04-18 11:06 51.50893 6.68907 32590 ft 450 kts 138°
2026-04-18 11:06 51.48803 6.72660 32840 ft 451 kts 138°
2026-04-18 11:07 51.46724 6.76389 33075 ft 452 kts 138°
2026-04-18 11:07 51.44641 6.80116 33150 ft 453 kts 137°
2026-04-18 11:07 51.40460 6.87635 33153 ft 455 kts 136°
2026-04-18 11:08 51.36505 6.95525 33160 ft 455 kts 134°
2026-04-18 11:08 51.32586 7.03410 33063 ft 450 kts 134°
2026-04-18 11:09 51.30660 7.07275 32584 ft 447 kts 134°
2026-04-18 11:09 51.28634 7.10964 31906 ft 443 kts 140°
2026-04-18 11:09 51.26380 7.14232 31242 ft 438 kts 147°
2026-04-18 11:09 51.23922 7.17059 30482 ft 435 kts 153°
2026-04-18 11:10 51.21316 7.19405 29643 ft 434 kts 158°
2026-04-18 11:10 51.18623 7.21550 28776 ft 437 kts 158°
2026-04-18 11:10 51.15906 7.23680 27911 ft 440 kts 158°
2026-04-18 11:10 51.13143 7.25852 27052 ft 443 kts 158°
2026-04-18 11:11 51.10410 7.28030 26228 ft 444 kts 157°
2026-04-18 11:11 51.07668 7.30287 25585 ft 441 kts 156°
2026-04-18 11:11 51.05000 7.32501 25005 ft 436 kts 156°
2026-04-18 11:11 51.02309 7.34726 24381 ft 432 kts 156°
2026-04-18 11:12 50.99672 7.36901 23769 ft 429 kts 156°
2026-04-18 11:12 50.97072 7.39042 23174 ft 425 kts 156°
2026-04-18 11:12 50.94456 7.41195 22587 ft 421 kts 156°
2026-04-18 11:12 50.91884 7.43307 22005 ft 418 kts 156°
2026-04-18 11:13 50.89325 7.45406 21422 ft 415 kts 156°
2026-04-18 11:13 50.86770 7.47496 20844 ft 412 kts 156°
2026-04-18 11:13 50.84245 7.49558 20283 ft 409 kts 156°
2026-04-18 11:13 50.81727 7.51612 19707 ft 405 kts 156°
2026-04-18 11:14 50.79229 7.53647 19132 ft 403 kts 156°
2026-04-18 11:14 50.76755 7.55664 18553 ft 400 kts 156°
2026-04-18 11:14 50.74324 7.57642 18017 ft 397 kts 156°
2026-04-18 11:14 50.71858 7.59646 17463 ft 394 kts 156°
2026-04-18 11:15 50.69451 7.61598 16917 ft 392 kts 155°
2026-04-18 11:15 50.67052 7.63542 16367 ft 389 kts 155°
2026-04-18 11:15 50.64639 7.65496 15830 ft 387 kts 156°
2026-04-18 11:15 50.62259 7.67421 15281 ft 384 kts 156°
2026-04-18 11:16 50.59901 7.69325 14753 ft 381 kts 156°
2026-04-18 11:16 50.57567 7.71207 14220 ft 379 kts 156°
2026-04-18 11:16 50.55254 7.73069 13700 ft 376 kts 156°
2026-04-18 11:16 50.52913 7.74953 13172 ft 373 kts 156°
2026-04-18 11:17 50.50628 7.76789 12657 ft 371 kts 156°
2026-04-18 11:17 50.48362 7.78607 12156 ft 368 kts 155°
2026-04-18 11:17 50.46100 7.80422 11648 ft 365 kts 155°
2026-04-18 11:17 50.43896 7.82385 11148 ft 363 kts 150°
2026-04-18 11:18 50.41833 7.84574 10687 ft 359 kts 145°
2026-04-18 11:18 50.39892 7.86945 10463 ft 348 kts 143°
2026-04-18 11:18 50.38039 7.89261 10243 ft 337 kts 143°
2026-04-18 11:18 50.36242 7.91505 10059 ft 327 kts 143°
2026-04-18 11:19 50.34481 7.93697 9867 ft 316 kts 143°
2026-04-18 11:19 50.32795 7.95791 9674 ft 306 kts 143°
2026-04-18 11:19 50.31157 7.97820 9493 ft 298 kts 143°
2026-04-18 11:19 50.29530 7.99828 9488 ft 298 kts 143°
2026-04-18 11:20 50.27894 8.01845 9908 ft 299 kts 143°
2026-04-18 11:20 50.26266 8.03852 10144 ft 297 kts 143°
2026-04-18 11:20 50.24668 8.05822 10143 ft 296 kts 143°
2026-04-18 11:20 50.23046 8.07831 10143 ft 296 kts 142°
2026-04-18 11:21 50.21487 8.09947 10141 ft 297 kts 138°
2026-04-18 11:21 50.20170 8.12407 10142 ft 298 kts 126°
2026-04-18 11:21 50.19047 8.15135 10062 ft 299 kts 123°
2026-04-18 11:21 50.17945 8.17897 9793 ft 298 kts 123°
2026-04-18 11:22 50.16837 8.20595 9565 ft 296 kts 124°
2026-04-18 11:22 50.15710 8.23257 9328 ft 295 kts 125°
2026-04-18 11:22 50.14575 8.25889 8927 ft 296 kts 125°
2026-04-18 11:22 50.13437 8.28504 8676 ft 290 kts 125°
2026-04-18 11:23 50.12295 8.31124 8551 ft 290 kts 125°
2026-04-18 11:23 50.11309 8.33826 8421 ft 291 kts 112°
2026-04-18 11:23 50.10754 8.36834 8298 ft 291 kts 99°
2026-04-18 11:23 50.10639 8.39989 8174 ft 290 kts 86°
2026-04-18 11:24 50.10962 8.43084 8048 ft 290 kts 73°
2026-04-18 11:24 50.11620 8.46044 7929 ft 289 kts 68°
2026-04-18 11:24 50.12341 8.48934 7810 ft 288 kts 68°
2026-04-18 11:24 50.13069 8.51841 7691 ft 288 kts 68°
2026-04-18 11:25 50.13777 8.54717 7563 ft 287 kts 68°
2026-04-18 11:25 50.14483 8.57633 7443 ft 287 kts 69°
2026-04-18 11:25 50.15178 8.60530 7331 ft 285 kts 69°
2026-04-18 11:25 50.15865 8.63413 7208 ft 285 kts 69°
2026-04-18 11:26 50.16552 8.66306 7081 ft 284 kts 70°
2026-04-18 11:26 50.17237 8.69188 6955 ft 283 kts 70°
2026-04-18 11:26 50.17913 8.72035 6830 ft 282 kts 70°
2026-04-18 11:26 50.18586 8.74875 6699 ft 281 kts 70°
2026-04-18 11:27 50.19262 8.77729 6573 ft 281 kts 70°
2026-04-18 11:27 50.19942 8.80607 6450 ft 280 kts 70°
2026-04-18 11:27 50.20606 8.83429 6329 ft 280 kts 70°
2026-04-18 11:27 50.21281 8.86299 6212 ft 279 kts 70°
2026-04-18 11:28 50.21943 8.89120 6088 ft 279 kts 70°
2026-04-18 11:28 50.22608 8.91957 5962 ft 279 kts 70°
2026-04-18 11:28 50.23280 8.94824 5840 ft 279 kts 70°
2026-04-18 11:28 50.23936 8.97627 5724 ft 279 kts 70°
2026-04-18 11:29 50.24596 9.00458 5601 ft 277 kts 70°
2026-04-18 11:29 50.25259 9.03301 5484 ft 276 kts 70°
2026-04-18 11:29 50.25911 9.06099 5362 ft 275 kts 70°
2026-04-18 11:29 50.26564 9.08903 5244 ft 274 kts 70°
2026-04-18 11:30 50.27209 9.11676 5071 ft 268 kts 70°
2026-04-18 11:30 50.27803 9.14339 4997 ft 255 kts 76°
2026-04-18 11:30 50.27780 9.17003 4974 ft 240 kts 114°
2026-04-18 11:30 50.26830 9.19057 4992 ft 238 kts 142°
2026-04-18 11:31 50.25377 9.20258 4997 ft 236 kts 167°
2026-04-18 11:31 50.23771 9.20404 4999 ft 233 kts 192°
2026-04-18 11:31 50.22271 9.19477 4997 ft 231 kts 217°
2026-04-18 11:31 50.21193 9.17672 4994 ft 229 kts 242°
2026-04-18 11:32 50.20510 9.15453 5003 ft 229 kts 246°
2026-04-18 11:32 50.19848 9.13174 4998 ft 229 kts 245°
2026-04-18 11:32 50.19185 9.10918 4997 ft 228 kts 245°
2026-04-18 11:32 50.18515 9.08672 4999 ft 228 kts 245°
2026-04-18 11:33 50.17846 9.06449 4992 ft 226 kts 245°
2026-04-18 11:33 50.17199 9.04308 4974 ft 211 kts 245°
2026-04-18 11:33 50.16582 9.02274 4982 ft 207 kts 245°
2026-04-18 11:33 50.15963 9.00233 4989 ft 207 kts 245°
2026-04-18 11:34 50.15348 8.98208 4992 ft 208 kts 245°
2026-04-18 11:34 50.14743 8.96153 4990 ft 208 kts 248°
2026-04-18 11:34 50.14234 8.94057 4992 ft 208 kts 250°
2026-04-18 11:34 50.13738 8.91945 4992 ft 208 kts 250°
2026-04-18 11:35 50.13246 8.89848 4991 ft 208 kts 250°
2026-04-18 11:35 50.12746 8.87718 4989 ft 208 kts 250°
2026-04-18 11:35 50.12254 8.85630 4960 ft 212 kts 250°
2026-04-18 11:35 50.11734 8.83431 4772 ft 220 kts 250°
2026-04-18 11:36 50.11181 8.81165 4433 ft 231 kts 249°
2026-04-18 11:36 50.10576 8.78794 4102 ft 241 kts 249°
2026-04-18 11:36 50.09971 8.76346 3820 ft 241 kts 250°
2026-04-18 11:36 50.09407 8.73906 3447 ft 242 kts 254°
2026-04-18 11:37 50.08967 8.71426 3355 ft 228 kts 255°
2026-04-18 11:37 50.08456 8.69138 2923 ft 227 kts 249°
2026-04-18 11:37 50.07845 8.66863 2387 ft 225 kts 248°
2026-04-18 11:37 50.07281 8.64658 2028 ft 218 kts 251°
2026-04-18 11:38 50.06772 8.62451 1680 ft 212 kts 251°
2026-04-18 11:38 50.06256 8.60374 1372 ft 206 kts 250°
2026-04-18 11:38 50.05759 8.58310 1068 ft 199 kts 250°
2026-04-18 11:38 50.05294 8.56333 803 ft 192 kts 250°
2026-04-18 11:39 50.04836 8.54426 553 ft 185 kts 250°
2026-04-18 11:39 50.04391 8.52588 356 ft 175 kts 250°
2026-04-18 11:39 50.04065 8.51208 355 ft 92 kts 250°
2026-04-18 11:39 50.03941 8.50704 355 ft 20 kts 249°
2026-04-18 11:40 50.03837 8.50399 355 ft 27 kts 230°
2026-04-18 11:40 50.03715 8.50225 355 ft 19 kts 218°
2026-04-18 11:40 50.03650 8.50197 354 ft 0 kts 154°
2026-04-18 11:41 50.03630 8.50223 355 ft 18 kts 126°
2026-04-18 11:41 50.03650 8.50368 355 ft 13 kts 73°
2026-04-18 11:41 50.03686 8.50538 355 ft 22 kts 70°
2026-04-18 11:41 50.03750 8.50800 355 ft 26 kts 69°
2026-04-18 11:42 50.03812 8.51059 355 ft 24 kts 70°
2026-04-18 11:42 50.03872 8.51304 355 ft 23 kts 69°
2026-04-18 11:42 50.03928 8.51537 355 ft 22 kts 70°
2026-04-18 11:42 50.03983 8.51764 355 ft 22 kts 69°
2026-04-18 11:43 50.04035 8.51985 355 ft 22 kts 70°
2026-04-18 11:43 50.04091 8.52214 355 ft 22 kts 69°
2026-04-18 11:43 50.04145 8.52438 355 ft 21 kts 70°
2026-04-18 11:43 50.04196 8.52654 355 ft 21 kts 70°
2026-04-18 11:44 50.04246 8.52862 355 ft 20 kts 70°
2026-04-18 11:44 50.04293 8.53068 355 ft 20 kts 65°
2026-04-18 11:44 50.04351 8.53285 355 ft 22 kts 70°
2026-04-18 11:44 50.04398 8.53524 355 ft 23 kts 82°
2026-04-18 11:45 50.04413 8.53741 355 ft 16 kts 86°
2026-04-18 11:45 50.04422 8.53897 355 ft 13 kts 84°
2026-04-18 11:45 50.04433 8.54053 355 ft 17 kts 84°
2026-04-18 11:45 50.04454 8.54343 355 ft 26 kts 85°
2026-04-18 11:46 50.04433 8.54597 355 ft 23 kts 117°
2026-04-18 11:46 50.04321 8.54771 355 ft 22 kts 155°
2026-04-18 11:46 50.04216 8.54832 355 ft 18 kts 162°
2026-04-18 11:46 50.04073 8.54915 355 ft 14 kts 156°
2026-04-18 11:47 50.04026 8.55034 355 ft 14 kts 79°
2026-04-18 11:47 50.04059 8.55188 355 ft 15 kts 68°
2026-04-18 11:47 50.04116 8.55411 355 ft 24 kts 70°
2026-04-18 11:47 50.04173 8.55657 355 ft 24 kts 70°
2026-04-18 11:48 50.04237 8.55916 355 ft 27 kts 69°
2026-04-18 11:48 50.04308 8.56209 355 ft 28 kts 70°
2026-04-18 11:48 50.04374 8.56490 355 ft 27 kts 70°
2026-04-18 11:48 50.04438 8.56757 355 ft 25 kts 70°
2026-04-18 11:49 50.04498 8.57013 355 ft 24 kts 70°
2026-04-18 11:49 50.04556 8.57254 356 ft 23 kts 72°
2026-04-18 11:49 50.04611 8.57487 356 ft 22 kts 69°
2026-04-18 11:49 50.04670 8.57728 356 ft 24 kts 70°
2026-04-18 11:50 50.04755 8.57948 356 ft 23 kts 41°
2026-04-18 11:50 50.04833 8.58159 356 ft 22 kts 71°
2026-04-18 11:50 50.04887 8.58382 356 ft 21 kts 69°
2026-04-18 11:50 50.04938 8.58603 356 ft 21 kts 69°
2026-04-18 11:51 50.04989 8.58813 356 ft 20 kts 71°
2026-04-18 11:51 50.05030 8.59007 356 ft 13 kts 93°
2026-04-18 11:51 50.05007 8.59048 356 ft 7 kts 153°
2026-04-18 11:51 50.04973 8.59070 356 ft 0 kts 159°
2026-04-18 11:52 50.04967 8.59074 356 ft 1 kts 159°
2026-04-18 11:52 50.04962 8.59076 356 ft 0 kts 160°
2026-04-18 11:52 50.04962 8.59077 355 ft 0 kts 160°